Weather in Chikola

Russia / Republic of North Ossetia — Alania     43°11′41″N   43°55′14″E
temp.,
°C
wind,
m/s
gust,
m/s
humid.,
%
clouds,
%
prec.,
mm/h
press.,
hPa
HPBL,
m
27 september, mon
mon2700:00+10sw326215 0.0 101830
03:00+10sw33620 0.0 101636
06:00+11ssw335949 0.0 101651
09:00+15nne33540 0.0 1015438
12:00+17ene335669 0.0 10151372
15:00+14n4682100 0.1 1016760
18:00+12nne0190100 1.2 101894
21:00+11sse1191100 1.4 101885
28 september, tue
tue2800:00+11ssw1290100 0.1 101761
03:00+11wsw118797 0.1 101717
06:00+11s118791 0.0 101712
09:00+13ene127544 0.0 1017579
12:00+14e336682 0.1 10171019
15:00+13se1375100 0.1 1018124
18:00+11w2283100 0.1 102071
21:00+10nnw2386100 0.1 1022313
29 september, wed
wed2900:00+10nnw1188100 0.0 1022187
03:00+9n008992 0.0 1022127
06:00+9sse1188100 0.0 102298
09:00+10ene1283100 0.0 1023389
12:00+11ne1378100 0.1 1022647
15:00+11e1278100 0.1 1022575
18:00+10e2482100 0.1 1022344
21:00+9ene1491100 0.5 1023382
30 september, thu
thu3000:00+8n2397100 2.6 1023245
03:00+7ne3698100 10.1 1024453
06:00+7ne2397100 4.0 1025307
09:00+6ene2494100 7.8 1027493
12:00+6ene2493100 1.1 1028766
15:00+6ene2393100 1.6 1028452
18:00+6e1294100 0.6 1029221
21:00+6e1194100 1.3 1030144
1 october, fri
fri100:00+6e0193100 0.2 1029136
03:00+6nne0094100 0.5 1029122
06:00+6e0094100 0.2 103087
09:00+6ne0090100 0.3 1031231
12:00+7ene1293100 0.5 1031380
15:00+6ene2491100 0.9 1031449
18:00+6wnw0095100 0.6 103193
21:00+6wsw0194100 0.8 103179